Showing default

VSP ROSE, 59124

Orbit data source: Space-Track

VSP ROSE, 59124 is a payload satellite owned by Aerospacelab (BE) in SSO that was launched on Mon, 04 Mar 2024 UTC via an FALCON 9 launch vehicle from the Air Force Western Test Range (AFWTR). Payload-class satellites include a variety of spacecraft equipped with specific instruments for various scientific and technological missions. These include communications satellites like Starlink; space stations such as the ISS; scientific satellites like the Hubble; Earth observation satellites from companies like Planet Labs, Umbra, and HawkEye 360; GPS; miniature CubeSats for education and research; and military/defense satellites.

Loading next visibility...
Identifier
59124, 2024-043AC
Orbit
SSO
Last TLE update
6 hours ago
Origin
Manufacturer
Aerospacelab
Mission
Operational Commercial Communications
Bus & Motor
AEROSP, Unknown motor
Mass
~200 kg wet, ~200 kg dry
Launch date (UTC)
2024-03-04 (1 year ago)
Launch vehicle
FALCON 9
Launch site
Air Force Western Test Range (AFWTR)
Object type
Payload
Rocket body
Debris
Shape & HBR
Box, 0.05 m
Radar Cross Section
0.004 m², Medium (>0.1 m² and < 1m²)

Expand to show TLE details & history

TLE from 6 hours ago
0 VSP ROSE
1 59124U 24043AC  25182.51368429  .00003436  00000-0  14207-3 0  9993
2 59124  97.5171 310.6357 0012813  48.0301 312.2025 15.24600799 73489
Epoch: 2025-07-01T12:19Z
TLE epoch observation values (Epoch: 2025-07-01T12:19:42.322Z)
Latitude
-0.00011°
Longitude
-154.09868°
Altitude
489.169 km
Speed
7.624 km/s
True Right ascension
20h 42m 32s
True Declination
0° 00' 00"
Sunlit
Object was in full shadow at epoch
Visualization orbit readout
Latitude
-68.73219°
Longitude
6.44111°
Altitude
525.94 km
Speed
7.594 km/s
Apparent Right ascension
16h 22m 44s
Apparent Declination
-75° 02' 52"
Sunlit
Object is in daylight
Visualization observer readout
Local Sidereal Time
05:48:30
Azimuth
170.871° S
Elevation
-53.527°
Doppler factor
1
Orbital elements
Apogee altitude
497.748 km
Perigee altitude
480.15 km
Semi-major axis
6,867.086 km
Eccentricity
0.00128
Inclination
97.5171°
RAAN
310.6357°
Arg. of periapsis
48.0301°
True anomaly
Unknown
Mean anomaly
312.2025°
Eccentric anomaly
Unknown
Mean motion
3.81403 °/min
Orbital period
94.39 mins
BSTAR
0.00014207
Loading maneuver chart data...
Loading SW <> Apogee altitude chart data...
Loading historical data...
Loading historical data...
Loading historical data...
Loading historical data...
Loading historical data...
Loading historical data...
Loading historical data...

VSP ROSE Visibility forecast

Observer location: undefined°, undefined°

Span
Click to sort rows by Start time (UTC) header in descending order
Start Az.
Max El. time (UTC)
Max El. Az.
Max El.
End time (UTC)
End Az.
5 mins2025-07-01 20:46:47.573Z45.66° ENE2025-07-01 20:48:47.573Z85.728° E22.877°2025-07-01 20:51:47.573Z150.003° SSE
6 mins2025-07-02 08:55:47.573Z188.849° SSW2025-07-02 08:58:47.573Z266.602° W35.507°2025-07-02 09:01:47.573Z333.57° NNW
|